Theta_e
348 352 358 357 365 366 362 357 352 351 349 344 342 341 351 352 357 352 339 339 343 343 341 328 327 332 332 331 330 333 340 338 337 343 338 340 340 341 342 341 341 341 340 339 333 337 337 340 340
356 357 357 360 365 367 360 352 352 349 345 342 343 349 353 354 343 338 337 339 341 342 341 341 326 328 332 339 338 341 342 343 342 341 341 339 340 341 343 342 341 342 334 333 337 340 338 339 341
357 357 360 365 364 366 363 355 353 346 344 347 352 353 355 351 338 338 337 340 344 345 346 339 333 333 332 335 340 340 337 337 342 341 339 340 339 340 342 341 341 343 332 330 328 329 333 335 336
357 359 361 365 362 358 358 353 349 346 350 351 352 355 351 343 338 337 339 344 345 346 349 338 337 337 337 336 336 337 337 334 339 342 337 340 340 341 341 340 335 333 329 328 326 336 337 337 329
357 360 366 364 360 359 354 352 351 348 348 351 352 354 346 339 339 337 343 344 345 348 348 345 335 336 340 341 342 341 340 334 335 340 337 341 339 339 338 338 340 338 343 329 336 333 336 334 331
359 356 364 364 359 357 354 353 352 352 351 352 353 349 346 343 338 340 343 345 345 346 349 347 335 339 337 339 341 341 340 334 338 341 339 341 341 339 340 337 340 338 338 336 332 337 338 339 337
360 362 359 358 359 358 355 352 352 352 352 351 352 353 347 341 340 341 344 344 346 347 348 346 348 344 342 341 341 340 341 339 341 340 336 338 337 339 339 338 339 339 335 331 337 342 340 340 339
357 356 354 353 356 358 352 352 352 351 352 351 350 351 344 341 340 343 346 347 346 347 345 350 349 352 349 346 344 342 342 341 343 340 335 337 339 339 338 339 340 339 338 340 341 342 341 341 340
353 362 358 354 355 353 352 353 353 352 350 351 351 345 341 341 341 344 347 347 347 346 346 346 349 351 349 349 344 342 342 342 342 338 336 338 337 336 338 339 338 339 338 337 341 341 340 342 340
356 357 353 350 353 351 352 350 352 352 352 352 342 340 342 343 344 344 347 347 346 345 346 346 349 350 350 350 346 348 348 348 347 341 335 338 338 336 337 339 339 340 340 334 339 339 345 349 346
350 351 349 348 349 350 350 351 350 350 352 351 345 343 344 343 345 346 346 346 345 344 346 348 348 350 350 345 350 348 349 348 349 345 340 340 340 340 339 339 341 339 341 342 342 337 345 349 349
350 348 348 348 349 349 350 351 352 352 353 352 349 345 343 343 345 346 347 347 345 345 346 346 348 350 348 350 349 347 348 348 347 348 349 340 338 337 340 340 341 344 341 345 337 335 333 335 345
350 350 349 350 350 349 348 352 352 353 352 353 350 347 343 343 345 344 347 346 344 345 346 346 348 349 349 351 347 349 348 348 348 349 349 347 347 338 339 341 341 348 347 347 346 346 345 342 347
348 349 350 350 351 349 349 350 352 352 352 353 351 347 346 343 344 344 346 345 344 344 345 346 347 350 351 350 352 350 350 350 350 349 348 349 347 342 340 340 346 347 347 346 346 347 346 345 345
349 353 352 352 351 351 351 352 353 352 353 353 351 348 347 344 345 345 345 343 344 343 345 346 348 350 352 353 351 351 351 350 350 350 345 347 345 344 343 341 348 346 347 348 347 346 348 347 346
350 351 355 353 352 351 352 357 353 351 352 353 352 351 346 343 345 346 344 342 343 343 344 345 346 348 350 351 350 351 349 350 351 350 349 346 345 346 345 345 346 346 346 345 347 347 347 348 348
349 353 352 356 353 352 352 356 352 350 350 352 353 352 347 344 346 343 343 343 342 343 343 343 346 348 350 351 351 351 347 351 352 352 353 348 348 347 347 350 344 345 347 348 346 347 344 345 348
344 343 346 353 352 353 351 354 352 350 349 352 352 352 349 348 346 343 344 340 341 341 344 343 346 349 350 352 349 350 351 351 352 347 352 346 347 345 351 351 346 347 349 347 346 347 345 346 348
343 343 342 345 349 352 353 356 352 349 349 351 350 351 350 348 346 345 350 345 339 339 343 345 347 351 351 352 350 347 348 348 348 352 346 346 346 348 347 353 350 349 347 346 347 349 347 347 346
341 340 340 342 345 351 352 355 353 350 348 349 350 350 349 347 346 348 349 346 344 339 340 343 345 350 351 351 349 347 348 347 349 351 349 346 346 346 347 351 347 349 349 349 348 346 348 345 343
335 338 338 344 345 347 351 355 356 352 348 348 348 348 348 348 346 348 346 346 343 340 340 341 344 349 352 351 350 351 348 346 347 347 352 352 354 351 345 348 346 350 348 350 351 348 347 348 342
335 334 336 340 346 361 349 357 345 357 353 349 347 348 348 348 348 349 346 346 347 346 342 342 343 351 352 351 351 352 350 348 350 348 351 352 351 350 347 347 350 347 347 347 348 350 348 349 346
337 337 336 339 342 341 349 349 363 358 358 352 348 347 347 348 349 347 349 349 348 348 344 346 346 350 351 352 348 352 348 349 348 347 346 346 348 347 353 348 345 345 341 342 346 342 350 348 345
336 339 340 339 340 351 347 343 353 356 357 356 348 347 346 347 348 349 348 350 349 347 346 347 348 350 351 352 352 346 353 351 350 349 348 349 351 352 348 344 344 344 342 343 345 348 346 343 346
336 340 348 345 343 348 341 346 356 348 348 354 352 347 346 346 347 348 348 348 348 348 346 348 349 351 352 352 352 351 348 351 352 350 348 347 346 351 353 351 350 349 345 348 346 344 343 340 343
335 336 338 338 337 340 339 347 342 345 346 349 349 347 346 345 346 347 348 348 347 347 346 349 347 348 350 352 351 346 348 349 349 350 348 347 346 345 351 352 346 343 344 343 339 341 345 350 346
336 335 335 334 335 334 344 345 345 345 347 348 348 347 346 345 344 345 346 347 347 347 347 348 347 346 349 350 351 351 346 341 348 349 350 349 348 345 345 345 349 344 344 344 342 337 343 346 350
335 336 336 337 342 342 341 344 348 346 347 349 349 347 346 346 345 344 345 345 346 346 346 347 347 348 348 349 350 351 351 349 346 349 350 348 347 348 342 341 348 347 345 346 346 344 343 344 346
335 335 335 337 339 342 338 340 341 344 348 349 348 348 348 347 347 346 345 345 346 346 345 345 345 346 347 349 349 350 350 350 352 350 351 349 348 347 343 340 349 354 350 344 345 348 346 343 345
336 336 337 337 337 339 339 345 343 341 344 347 347 348 350 349 347 347 347 347 347 347 346 346 346 347 349 350 351 349 349 350 350 351 351 349 349 348 340 343 343 344 345 355 351 350 350 347 350
Wind_Speed
6 4 1 7 4 4 4 13 14 16 11 12 13 6 14 17 10 5 23 18 20 18 16 15 14 13 12 12 11 10 11 11 12 9 11 11 12 13 14 15 17 18 18 18 18 19 20 20 20
7 5 7 6 3 7 9 16 14 12 16 16 12 10 7 13 9 23 22 21 19 17 15 12 13 13 11 10 10 10 10 10 10 9 11 12 13 13 14 15 16 17 15 17 18 18 18 17 18
2 7 5 5 4 2 9 8 15 18 17 14 9 10 8 5 21 21 22 22 19 17 15 11 12 12 10 8 7 7 8 8 9 9 11 12 14 14 15 16 16 15 14 14 15 16 16 16 17
3 5 11 2 7 15 15 11 15 19 14 5 14 9 9 10 18 20 23 21 18 16 15 12 11 10 9 7 7 7 7 7 9 9 10 12 13 14 15 15 14 12 14 14 14 15 15 15 16
7 9 6 5 11 18 10 15 12 13 10 10 6 8 13 19 16 24 22 19 17 16 10 11 10 10 8 6 6 6 7 8 9 9 11 12 12 12 12 12 12 12 12 13 14 14 15 14 13
7 6 2 7 10 15 8 15 8 8 13 12 15 18 12 15 23 22 20 18 15 13 14 6 8 7 6 5 6 6 7 9 10 11 13 13 12 11 12 11 10 11 11 11 13 13 12 12 12
11 5 7 12 12 12 11 8 6 4 11 9 13 10 15 22 23 22 19 17 14 14 13 7 6 5 5 5 7 8 10 11 12 15 17 13 11 10 11 11 9 9 9 11 12 10 10 10 10
15 5 12 11 10 11 11 10 12 8 6 12 13 5 22 26 24 22 19 17 14 12 10 11 9 7 3 5 9 11 13 12 12 17 18 16 12 10 10 8 9 9 8 9 9 9 8 7 8
5 3 0 10 10 10 18 10 12 8 14 8 5 22 27 26 24 21 19 16 14 12 10 9 10 13 10 14 16 14 13 12 13 15 16 15 12 9 8 5 5 6 7 6 8 9 9 8 10
8 3 7 8 18 9 15 9 10 12 13 12 19 26 28 25 24 22 19 17 15 13 12 10 13 13 15 13 16 16 13 12 12 13 14 11 11 9 7 2 9 6 6 6 6 9 9 10 6
6 9 8 8 10 9 10 13 9 14 6 15 23 30 27 28 23 20 17 16 16 14 12 11 13 10 15 12 15 10 10 9 9 10 10 11 8 7 7 5 9 8 7 8 6 7 6 11 6
2 7 8 8 2 9 6 11 12 17 13 13 19 26 28 27 24 20 18 17 15 14 12 11 12 9 11 10 13 10 10 9 10 8 10 8 8 8 8 6 8 7 8 9 5 5 7 6 7
5 6 5 6 4 12 3 17 3 7 3 14 18 24 26 25 22 20 17 16 15 14 13 12 12 11 10 9 10 10 7 9 6 6 7 9 6 7 9 7 8 9 7 4 6 5 5 4 5
3 3 4 9 6 8 7 7 6 5 7 16 18 22 23 24 22 19 18 17 15 14 14 13 12 12 10 10 9 8 9 8 5 6 9 4 8 5 8 8 5 5 2 6 6 6 7 7 6
5 11 12 15 8 8 9 9 8 7 10 14 18 19 22 21 21 21 19 18 16 15 14 13 13 12 10 9 9 8 6 4 3 5 3 5 7 7 6 9 10 10 7 6 6 8 6 7 7
13 14 15 14 9 5 16 10 8 9 12 14 16 18 19 20 22 21 18 18 17 15 15 14 12 11 9 8 7 6 6 6 2 7 2 2 3 5 8 6 10 9 8 8 7 6 10 9 10
12 14 17 12 9 6 9 10 11 10 13 16 16 18 20 23 24 21 20 18 18 15 16 14 13 12 9 7 5 4 2 2 8 3 3 1 3 3 6 8 7 12 8 5 6 9 7 9 9
3 4 8 12 11 11 6 12 13 13 10 22 19 20 21 22 25 22 18 20 17 18 15 15 13 12 10 6 7 4 3 2 3 2 1 1 3 3 5 4 5 7 9 10 7 8 3 4 2
3 5 2 7 8 8 6 13 13 14 13 21 19 24 23 26 23 22 17 18 18 18 17 16 14 12 10 8 6 4 4 3 2 2 3 1 2 3 6 2 2 5 7 8 11 6 4 6 10
4 7 6 7 8 11 8 12 12 13 13 15 22 24 24 25 25 23 21 21 19 20 19 18 15 13 10 7 5 4 2 1 2 1 5 1 1 2 1 2 2 4 4 6 7 10 8 8 10
3 3 7 8 13 14 10 9 11 14 14 16 17 23 24 22 28 25 24 23 21 21 20 18 16 13 11 8 7 4 3 1 1 2 3 3 2 3 2 4 3 6 5 5 4 5 7 6 10
12 4 4 6 11 6 18 6 25 18 16 16 19 19 23 29 25 24 27 26 24 24 21 19 18 15 13 11 8 7 4 2 4 2 4 1 4 3 2 3 5 6 9 6 3 4 7 7 7
7 2 6 9 12 9 9 6 16 19 17 17 19 22 21 24 29 26 28 27 25 26 22 20 19 17 15 12 13 8 5 4 1 1 3 1 5 3 3 5 3 4 9 7 5 4 7 8 5
5 10 11 11 8 7 22 8 15 7 15 17 19 22 22 24 25 27 27 30 29 26 24 22 22 19 17 14 11 14 8 6 2 2 2 4 4 4 4 2 3 4 3 2 7 8 8 6 7
9 14 3 6 2 9 15 3 14 11 10 19 20 23 22 23 25 26 27 28 28 29 27 24 23 22 20 17 14 12 12 12 10 7 4 4 2 6 8 4 5 4 5 5 1 5 5 6 6
10 16 7 5 6 3 4 11 5 11 6 19 22 22 22 22 23 25 26 27 27 27 27 25 27 25 21 20 18 15 14 12 12 11 10 8 7 5 7 6 7 6 7 4 5 4 4 7 6
5 8 12 13 2 5 6 10 11 10 10 16 20 22 23 22 22 22 24 25 27 28 28 27 26 26 26 22 20 18 18 16 15 15 13 10 9 9 12 12 9 10 10 11 9 7 6 8 9
16 11 5 5 3 6 3 10 9 9 11 12 17 20 22 22 21 21 21 23 24 25 27 27 26 24 21 22 20 19 18 18 18 18 17 16 14 13 15 15 12 13 12 13 16 15 15 15 13
9 12 12 9 11 9 8 4 10 8 12 13 17 22 22 22 21 21 21 21 20 21 23 25 25 24 23 21 20 20 18 18 18 17 17 16 15 15 16 14 13 14 16 16 18 18 17 17 16
11 7 16 7 9 14 4 7 9 5 12 13 13 22 24 23 22 22 21 20 20 20 20 21 22 22 22 20 20 20 20 19 19 18 16 16 15 15 16 14 14 16 17 18 20 19 16 18 17
Wind_Direction
175 178 157 221 236 217 105 98 103 111 109 114 102 98 70 30 29 59 137 140 140 139 144 137 133 131 130 125 119 110 101 95 102 101 88 88 91 98 107 106 107 105 111 107 104 101 97 92 91
186 230 246 259 256 123 93 110 120 100 116 111 103 103 84 59 78 127 132 142 136 137 134 141 135 133 134 128 126 115 102 94 97 99 99 91 89 98 107 107 113 108 112 110 109 105 103 99 95
185 240 250 219 140 122 120 99 97 115 120 114 87 71 41 72 121 128 137 136 135 130 136 152 130 130 132 134 129 120 111 102 99 110 108 99 94 97 103 106 113 109 111 110 110 105 101 99 99
230 259 261 287 86 100 115 122 119 134 115 98 120 87 86 114 131 136 138 135 134 131 139 138 128 128 128 130 144 140 127 117 110 114 114 102 103 101 101 104 106 108 108 112 113 107 101 101 103
258 250 268 164 99 101 119 117 123 143 146 135 117 92 109 135 132 139 138 136 133 134 128 134 127 124 123 129 133 132 123 125 117 115 120 111 106 109 107 103 104 104 109 112 115 109 101 100 99
264 254 300 111 111 112 110 103 125 148 138 108 109 118 123 143 144 143 139 138 135 134 136 139 126 120 121 129 129 139 132 123 122 122 117 108 101 106 106 110 107 116 119 121 122 117 110 102 101
253 234 171 128 120 119 118 129 114 140 133 130 134 111 134 148 148 144 142 140 137 133 125 129 123 112 104 141 150 141 133 128 129 129 134 121 109 105 109 114 109 114 124 122 120 116 121 116 112
272 284 75 70 116 120 128 126 118 115 130 126 136 160 152 151 150 147 144 142 140 137 130 120 120 83 106 152 150 134 134 136 135 145 144 136 129 124 116 109 116 120 127 126 120 113 110 118 127
263 288 244 96 72 123 123 141 128 115 129 128 109 138 147 149 151 150 146 145 146 141 134 126 135 92 80 106 133 133 130 128 137 145 145 141 145 133 124 122 137 134 137 143 126 113 99 101 118
106 155 184 49 124 151 152 121 132 150 136 127 116 134 147 151 151 157 156 155 152 144 142 126 122 123 111 114 122 124 114 129 134 145 151 146 162 159 158 121 180 166 150 157 145 119 102 98 116
339 55 83 66 27 120 123 113 180 152 154 142 135 147 155 155 160 162 159 162 153 151 141 137 119 110 128 104 102 123 126 123 144 148 140 152 167 180 173 139 155 163 137 144 151 161 152 124 153
187 49 37 81 29 116 128 158 117 75 256 134 145 155 158 161 164 166 170 160 153 152 146 142 145 130 124 128 116 126 132 140 149 155 144 176 166 167 165 164 158 140 163 160 180 168 166 163 149
322 89 137 108 198 107 132 108 264 88 165 137 144 155 162 165 166 168 170 160 160 157 154 149 148 140 143 130 134 131 137 145 146 157 160 158 194 182 175 175 148 148 167 188 174 191 183 159 143
51 146 143 150 131 111 120 128 143 87 149 141 152 158 166 174 166 169 171 165 165 162 158 157 146 141 140 136 139 140 136 119 159 151 174 188 180 192 195 182 175 191 169 180 189 201 210 184 191
212 163 153 148 174 148 108 134 91 114 149 150 153 167 170 173 167 174 171 168 170 167 160 155 152 146 140 132 121 123 121 148 135 176 215 177 203 210 187 182 193 195 211 204 206 215 210 206 196
212 208 147 139 164 143 169 108 132 142 149 143 164 176 170 175 173 178 172 174 169 170 164 160 156 156 152 153 147 154 120 170 304 22 127 65 164 188 181 168 177 182 202 211 222 239 221 225 212
149 264 134 125 192 149 224 127 150 170 151 156 163 179 173 182 180 178 175 174 172 166 167 166 163 160 155 163 164 145 83 136 170 172 201 159 139 151 144 173 194 201 203 214 223 264 244 225 205
29 94 88 127 161 221 179 105 156 174 164 154 173 177 180 190 183 176 181 176 178 176 175 171 168 168 162 166 161 167 155 221 7 42 99 154 123 104 123 202 218 183 202 203 219 253 230 158 180
292 283 170 125 142 204 230 133 164 176 168 155 172 173 192 188 177 177 169 179 183 182 185 181 178 179 177 171 160 165 197 178 231 259 342 148 127 142 118 169 205 216 218 206 207 227 232 168 175
206 206 155 123 171 240 150 143 166 179 177 175 166 187 192 180 179 184 190 188 193 189 194 194 192 189 183 185 179 169 192 203 192 143 293 251 264 265 226 145 194 217 226 234 234 208 202 208 213
190 337 146 163 193 222 142 131 179 179 183 173 181 184 183 191 181 188 191 195 190 195 197 200 198 196 194 186 184 195 198 254 131 218 226 232 211 286 286 221 247 234 218 215 240 216 210 227 226
101 27 247 209 214 122 228 164 260 182 188 181 182 192 188 183 198 188 195 198 197 199 197 201 200 196 201 198 197 194 214 190 106 130 196 254 250 268 311 271 279 301 282 244 206 205 228 208 233
56 268 250 233 257 233 190 249 200 171 187 183 189 184 195 192 188 197 195 198 201 199 198 200 202 203 197 208 189 208 205 222 141 141 296 57 268 303 233 300 346 314 351 224 192 307 231 216 220
309 236 228 223 244 33 235 296 7 207 189 189 187 185 191 191 198 196 197 192 198 201 199 203 203 204 205 204 213 205 206 220 204 195 249 276 269 282 305 286 315 314 308 227 226 222 231 239 228
238 240 241 218 165 235 223 199 176 184 172 176 180 184 186 189 193 201 198 197 198 199 202 201 200 207 206 208 208 218 220 223 225 227 244 267 257 247 260 263 264 292 329 262 317 259 257 228 243
201 284 262 292 343 153 224 123 254 101 118 158 170 179 179 186 188 197 202 202 200 203 201 203 209 207 212 212 215 224 222 226 231 230 226 240 255 256 255 253 260 259 272 288 254 304 297 280 268
235 252 308 295 207 232 123 280 115 118 138 150 164 172 176 182 185 191 197 201 205 205 206 206 206 215 218 219 224 221 228 222 221 223 231 248 263 260 263 275 249 259 259 265 262 261 298 264 269
270 341 266 333 358 11 311 321 80 147 152 166 161 178 176 181 185 186 192 196 201 205 207 208 209 213 216 215 220 219 222 227 229 228 234 238 236 243 246 245 250 258 260 262 267 265 266 264 263
200 230 226 172 176 242 231 118 71 134 155 167 172 182 178 183 183 186 190 190 193 198 203 206 209 212 213 214 215 219 222 225 232 232 239 245 250 251 250 250 242 251 265 265 263 264 259 261 256
309 321 279 243 312 342 54 93 25 80 143 161 184 180 180 185 183 183 182 183 186 192 196 200 205 209 214 216 217 220 225 222 230 234 234 240 244 247 250 248 259 266 262 257 262 265 263 254 251